FW3754 Weather Reports


Display with metric or nautical units.
time (UTC)temp
F
wind
direction
speed
MPH
gust
MPH
rain 1hr
in
rain 24hr
in
rain mn
in
humidity
%
barometer
mb
20260503234526 74 125 2.0 0.0 0.00 0.00 0.49 92 1013.4
20260503233025 75 118 3.0 0.0 0.00 0.00 0.46 90 1013.4
20260503231524 75 137 4.0 0.0 0.00 0.00 0.38 87 1013.1
20260503230028 76 111 3.0 0.0 0.00 0.00 0.38 86 1013.0
20260503224524 76 148 6.0 0.0 0.00 0.00 0.38 85 1013.0
20260503223023 77 150 3.0 0.0 0.00 0.00 0.38 84 1013.1
20260503221521 77 79 2.0 0.0 0.00 0.00 0.38 83 1013.0
20260503220022 78 81 3.0 0.0 0.00 0.00 0.38 81 1013.1
20260503214521 78 79 3.0 0.0 0.00 0.00 0.38 80 1013.1
20260503213021 78 117 3.0 0.0 0.00 0.00 0.38 82 1013.0
20260503211520 78 123 3.0 0.0 0.00 0.00 0.38 81 1013.2
20260503210020 78 99 3.0 0.0 0.00 0.00 0.38 82 1013.4
20260503204526 78 65 4.0 0.0 0.00 0.00 0.38 82 1013.3
20260503203019 78 72 5.0 0.0 0.00 0.00 0.38 82 1013.5
20260503201519 79 155 5.0 0.0 0.00 0.00 0.38 81 1013.5
20260503200020 79 101 3.0 0.0 0.00 0.00 0.38 80 1013.6
20260503194518 80 132 3.0 0.0 0.00 0.00 0.38 79 1013.6
20260503193034 80 131 4.0 0.0 0.00 0.00 0.38 80 1013.7
20260503191515 80 136 3.0 0.0 0.00 0.00 0.38 78 1013.9
20260503190018 79 113 3.0 0.0 0.00 0.00 0.38 78 1014.2
20260503184521 79 130 3.0 0.0 0.00 0.00 0.38 79 1014.2
20260503183014 79 101 5.0 0.0 0.00 0.00 0.38 80 1014.4
20260503181513 80 65 4.0 0.0 0.00 0.00 0.38 77 1014.7
20260503180018 79 86 3.0 0.0 0.00 0.00 0.38 77 1014.8
20260503174513 79 46 4.0 0.0 0.00 0.00 0.38 80 1015.0
20260503173021 80 21 3.0 0.0 0.00 0.00 0.38 78 1015.2
20260503171520 80 81 2.0 0.0 0.00 0.00 0.38 79 1015.2
20260503100104 74 54 5.0 0.0 0.00 0.00 0.00 82 1012.9
20260503081541 76 24 6.0 0.0 0.00 0.00 0.00 80 1012.9
20260503071536 78 10 1.0 0.0 0.00 0.00 0.00 84 1011.7
20260503054534 78 315 3.0 0.0 0.00 0.00 0.00 76 1012.6
20260503053020 78 305 2.0 0.0 0.00 0.00 0.00 77 1013.1
20260503051525 78 350 2.0 0.0 0.00 0.00 0.00 79 1013.4
20260503050021 78 325 4.0 0.0 0.00 0.00 0.00 78 1013.3
20260503044526 79 315 4.0 0.0 0.00 0.00 0.00 81 1013.5
20260503043013 79 334 3.0 0.0 0.00 0.00 0.00 80 1013.4
20260503041511 79 346 3.0 0.0 0.00 0.00 0.00 79 1013.4
20260503040012 79 340 3.0 0.0 0.00 0.00 0.00 78 1013.3
20260503034509 79 355 2.0 0.0 0.00 0.00 0.00 78 1013.3
20260503033007 80 351 3.0 0.0 0.00 0.00 0.00 77 1013.2
20260503031505 80 340 2.0 0.0 0.00 0.00 0.00 76 1012.9
20260503030006 80 360 4.0 0.0 0.00 0.00 0.00 75 1013.0
20260503024504 80 323 4.0 0.0 0.00 0.00 0.00 74 1012.8
20260503023005 81 360 4.0 0.0 0.00 0.00 0.00 72 1012.9
20260503021503 81 346 5.0 0.0 0.00 0.00 0.00 71 1012.9
20260503020002 81 360 5.0 0.0 0.00 0.00 0.00 70 1012.6
20260503014603 82 324 5.0 0.0 0.00 0.00 0.00 68 1012.5
20260503013103 82 306 5.0 0.0 0.00 0.00 0.00 66 1012.4
20260503011607 83 335 4.0 0.0 0.00 0.00 0.00 65 1012.2
20260503010120 83 350 5.0 0.0 0.00 0.00 0.00 63 1012.0
20260503004557 84 317 5.0 0.0 0.00 0.00 0.00 61 1011.9
20260503003100 84 344 6.0 0.0 0.00 0.00 0.00 58 1011.6
20260503001600 85 348 6.0 0.0 0.00 0.00 0.00 55 1011.5